Location: Area 52 Observatory
(34.2620°N, 119.2590°W)
Time: 19:30:25
(UTC-07:00)

ISS - Visible Passes

Search period start: 16 October 2019 00:00
Search period end: 26 October 2019 00:00
Orbit: 411 x 421 km, 51.6° (Epoch: 16 October)

Date Brightness Start Highest point End Pass type
(mag) Time Alt. Az. Time Alt. Az. Time Alt. Az.
21 Oct -0.7 06:18:39 10° SSE 06:20:45 16° SE 06:22:50 10° E visible
23 Oct -3.0 06:16:48 10° SSW 06:20:05 53° SE 06:23:22 10° NE visible
24 Oct -1.7 05:29:54 18° S 05:31:37 26° SE 05:34:30 10° ENE visible
25 Oct -0.4 04:44:22 12° ESE 04:44:22 12° ESE 04:45:04 10° E visible
25 Oct -3.3 06:17:20 17° WSW 06:19:37 43° NW 06:22:52 10° NE visible
